TIANLIAN 1-04

Last updated on Sun Jul 06 2025 00:02:45 GMT+0000 (Coordinated Universal Time)

1 41869U 16072A 25186.55795022 .00000047 00000+0 00000+0 0 9990 2 41869 0.0405 316.2031 0044438 210.1705 135.0444 1.00271768 31821
UTC large
Height (km)
Speed (km/s)
/
Latitude / Longitude
Inclination (degrees)
Orbital Period (minutes)
Azimuth
Elevation
Range (km)
Doppler Factor

Next 0 passes for location: London (51.5072 / 0.1276)

Sorry there are no passes over London.